AFR025 KLAX-LFPG

Flight info

Callsign AFR025
Flight time N/A
Altitude 33000
Route ORCKA5 LAS DCT BAWER DCT KU51Q DCT KD60U DCT KD63W DCT NUXRO DCT NARLY J114 GEP/N0492F350 DCT KP09K DCT CMX DCT YMO DCT AGLOL DCT TEALS DCT LOMTA/M084F350 DCT URTAK DCT 59N050W 5930N04000W 59N030W 5830N02000W DCT SUNOT/N0481F350 DCT KESIX DCT APSOV DCT MAKUX DCT SOSIM L15 KEPAD L151 MID/N0498F290 Y803 SFD UM605 BIBAX
Aircraft B77W/H-SDE1E2E3FGHIJ2J3J4J5M1RWXY/LB1D1

Departure

Time 2026-05-06 00:45
Airport Los Angeles International Airport (KLAX)

Arrival

Time N/A
Airport Charles de Gaulle International Airport (LFPG)
Time Latitude Longitude Altitude Speed Heading
2026-05-05 23:34 33.94397 -118.41143 139 ft 0 kts 83°
2026-05-06 00:30 33.94395 -118.41156 140 ft 2 kts 83°
2026-05-06 00:30 33.94394 -118.41175 140 ft 1 kts 83°
2026-05-06 00:30 33.94392 -118.41194 140 ft 1 kts 83°
2026-05-06 00:31 33.94390 -118.41214 140 ft 1 kts 83°
2026-05-06 00:31 33.94388 -118.41232 140 ft 1 kts 83°
2026-05-06 00:31 33.94387 -118.41242 140 ft 1 kts 73°
2026-05-06 00:31 33.94387 -118.41250 140 ft 0 kts 43°
2026-05-06 00:32 33.94388 -118.41253 140 ft 2 kts 10°
2026-05-06 00:32 33.94374 -118.41255 140 ft 2 kts 355°
2026-05-06 00:32 33.94358 -118.41253 140 ft 2 kts 353°
2026-05-06 00:32 33.94342 -118.41251 140 ft 1 kts 353°
2026-05-06 00:33 33.94339 -118.41250 140 ft 0 kts 353°
2026-05-06 00:35 33.94350 -118.41252 140 ft 4 kts 353°
2026-05-06 00:35 33.94375 -118.41255 140 ft 4 kts 353°
2026-05-06 00:36 33.94420 -118.41262 140 ft 6 kts 353°
2026-05-06 00:36 33.94478 -118.41277 140 ft 9 kts 329°
2026-05-06 00:36 33.94481 -118.41344 140 ft 9 kts 221°
2026-05-06 00:36 33.94419 -118.41346 140 ft 9 kts 172°
2026-05-06 00:37 33.94364 -118.41337 140 ft 8 kts 172°
2026-05-06 00:37 33.94302 -118.41326 140 ft 10 kts 172°
2026-05-06 00:37 33.94219 -118.41313 140 ft 12 kts 172°
2026-05-06 00:37 33.94138 -118.41304 140 ft 11 kts 175°
2026-05-06 00:38 33.94060 -118.41293 140 ft 11 kts 173°
2026-05-06 00:38 33.93985 -118.41282 140 ft 11 kts 173°
2026-05-06 00:38 33.93910 -118.41271 140 ft 14 kts 173°
2026-05-06 00:38 33.93804 -118.41256 140 ft 15 kts 168°
2026-05-06 00:39 33.93764 -118.41153 140 ft 14 kts 86°
2026-05-06 00:39 33.93773 -118.41036 140 ft 14 kts 83°
2026-05-06 00:39 33.93791 -118.40860 140 ft 23 kts 83°
2026-05-06 00:39 33.93809 -118.40674 140 ft 22 kts 83°
2026-05-06 00:40 33.93826 -118.40498 140 ft 21 kts 83°
2026-05-06 00:40 33.93843 -118.40328 140 ft 20 kts 83°
2026-05-06 00:40 33.93861 -118.40166 140 ft 19 kts 82°
2026-05-06 00:40 33.93878 -118.40011 140 ft 18 kts 83°
2026-05-06 00:41 33.93893 -118.39865 140 ft 17 kts 83°
2026-05-06 00:41 33.93908 -118.39727 140 ft 18 kts 83°
2026-05-06 00:41 33.93923 -118.39578 140 ft 17 kts 83°
2026-05-06 00:41 33.93937 -118.39436 140 ft 16 kts 83°
2026-05-06 00:42 33.93950 -118.39302 140 ft 16 kts 83°
2026-05-06 00:42 33.93962 -118.39175 140 ft 18 kts 83°
2026-05-06 00:42 33.93981 -118.38983 140 ft 23 kts 83°
2026-05-06 00:42 33.94001 -118.38793 140 ft 22 kts 83°
2026-05-06 00:43 33.94020 -118.38603 140 ft 25 kts 83°
2026-05-06 00:43 33.94040 -118.38403 140 ft 23 kts 83°
2026-05-06 00:43 33.94058 -118.38217 140 ft 22 kts 83°
2026-05-06 00:43 33.94055 -118.38055 140 ft 17 kts 124°
2026-05-06 00:44 33.93978 -118.38035 140 ft 7 kts 242°
2026-05-06 00:44 33.93977 -118.38053 140 ft 4 kts 269°
2026-05-06 00:44 33.93958 -118.38250 140 ft 54 kts 262°
2026-05-06 00:44 33.93884 -118.38967 140 ft 118 kts 263°
2026-05-06 00:45 33.93759 -118.40199 144 ft 173 kts 262°
2026-05-06 00:45 33.93657 -118.41206 328 ft 186 kts 262°
2026-05-06 00:45 33.93521 -118.42728 1053 ft 183 kts 264°
2026-05-06 00:45 33.93392 -118.44288 1687 ft 188 kts 262°
2026-05-06 00:46 33.93217 -118.45814 2385 ft 184 kts 259°
2026-05-06 00:46 33.92866 -118.47366 2661 ft 201 kts 251°
2026-05-06 00:46 33.92352 -118.49044 2847 ft 223 kts 250°
2026-05-06 00:46 33.91754 -118.50863 3159 ft 239 kts 249°
2026-05-06 00:47 33.91120 -118.52746 3544 ft 253 kts 249°
2026-05-06 00:47 33.90442 -118.54720 4101 ft 260 kts 249°
2026-05-06 00:47 33.89717 -118.56773 4658 ft 268 kts 249°
2026-05-06 00:47 33.88813 -118.58760 5251 ft 278 kts 232°
2026-05-06 00:48 33.87254 -118.60151 5870 ft 285 kts 206°
2026-05-06 00:48 33.85317 -118.60602 6531 ft 289 kts 180°
2026-05-06 00:48 33.83355 -118.60018 7164 ft 290 kts 154°
2026-05-06 00:48 33.81797 -118.58516 7771 ft 288 kts 128°
2026-05-06 00:49 33.80919 -118.56405 8352 ft 286 kts 103°
2026-05-06 00:49 33.80863 -118.54065 8910 ft 283 kts 77°
2026-05-06 00:49 33.81667 -118.51892 9460 ft 281 kts 52°
2026-05-06 00:49 33.83051 -118.50299 10005 ft 282 kts 36°
2026-05-06 00:50 33.84763 -118.49076 10367 ft 293 kts 28°
2026-05-06 00:50 33.86608 -118.47870 10584 ft 311 kts 27°
2026-05-06 00:50 33.88589 -118.46616 10801 ft 329 kts 27°
2026-05-06 00:50 33.90593 -118.45183 10994 ft 347 kts 35°
2026-05-06 00:51 33.92469 -118.43221 11348 ft 360 kts 41°
2026-05-06 00:51 33.94369 -118.41236 11801 ft 369 kts 41°
2026-05-06 00:51 33.96113 -118.38915 12271 ft 378 kts 53°
2026-05-06 00:51 33.97504 -118.36220 12929 ft 384 kts 60°
2026-05-06 00:52 33.98606 -118.33903 13436 ft 386 kts 58°
2026-05-06 00:52 34.00066 -118.31064 14101 ft 389 kts 55°
2026-05-06 00:52 34.01668 -118.28478 14758 ft 391 kts 51°
2026-05-06 00:52 34.03292 -118.25833 15024 ft 392 kts 54°
2026-05-06 00:53 34.04832 -118.23103 15010 ft 393 kts 55°
2026-05-06 00:53 34.06339 -118.20343 14999 ft 394 kts 56°
2026-05-06 00:53 34.07857 -118.17609 14994 ft 393 kts 55°
2026-05-06 00:53 34.09394 -118.14872 14994 ft 394 kts 55°
2026-05-06 00:54 34.10949 -118.12111 15465 ft 399 kts 56°
2026-05-06 00:54 34.12510 -118.09353 16186 ft 399 kts 54°
2026-05-06 00:54 34.14117 -118.06561 16874 ft 400 kts 55°
2026-05-06 00:54 34.15667 -118.03790 17532 ft 402 kts 55°
2026-05-06 00:55 34.17227 -118.01001 18132 ft 404 kts 54°
2026-05-06 00:55 34.18824 -117.98188 18690 ft 407 kts 54°
2026-05-06 00:55 34.20422 -117.95360 19214 ft 411 kts 54°
2026-05-06 00:55 34.22041 -117.92479 19718 ft 415 kts 54°
2026-05-06 00:56 34.23670 -117.89570 20208 ft 418 kts 55°
2026-05-06 00:56 34.25309 -117.86640 20601 ft 424 kts 55°
2026-05-06 00:56 34.26961 -117.83681 21098 ft 427 kts 55°
2026-05-06 00:56 34.28629 -117.80691 21648 ft 427 kts 55°
2026-05-06 00:57 34.30275 -117.77741 22165 ft 430 kts 54°
2026-05-06 00:57 34.31941 -117.74754 22673 ft 431 kts 55°
2026-05-06 00:57 34.33642 -117.71707 23081 ft 435 kts 55°
2026-05-06 00:57 34.35318 -117.68697 23506 ft 437 kts 55°
2026-05-06 00:58 34.37068 -117.65646 23912 ft 440 kts 53°
2026-05-06 00:58 34.38883 -117.62611 24080 ft 449 kts 52°
2026-05-06 00:58 34.40749 -117.59537 24412 ft 454 kts 52°
2026-05-06 00:58 34.42614 -117.56447 24791 ft 457 kts 52°
2026-05-06 00:59 34.44498 -117.53302 25151 ft 460 kts 52°
2026-05-06 00:59 34.46334 -117.50224 25832 ft 454 kts 53°
2026-05-06 00:59 34.48190 -117.47101 26298 ft 455 kts 53°
2026-05-06 00:59 34.50045 -117.43974 26621 ft 458 kts 53°
2026-05-06 01:00 34.51894 -117.40849 26935 ft 462 kts 53°
2026-05-06 01:00 34.53781 -117.37658 27095 ft 468 kts 52°
2026-05-06 01:00 34.55686 -117.34448 27470 ft 469 kts 52°
2026-05-06 01:00 34.57611 -117.31239 27721 ft 473 kts 52°
2026-05-06 01:01 34.59545 -117.28000 28147 ft 472 kts 52°
2026-05-06 01:01 34.61475 -117.24751 28454 ft 475 kts 52°
2026-05-06 01:01 34.63410 -117.21481 28605 ft 481 kts 52°
2026-05-06 01:01 34.65371 -117.18162 28798 ft 484 kts 52°
2026-05-06 01:02 34.67331 -117.14841 29412 ft 479 kts 52°
2026-05-06 01:02 34.69264 -117.11560 29551 ft 484 kts 52°
2026-05-06 01:02 34.71232 -117.08218 29697 ft 488 kts 52°
2026-05-06 01:02 34.73205 -117.04863 29819 ft 493 kts 52°
2026-05-06 01:03 34.75220 -117.01472 30111 ft 493 kts 52°
2026-05-06 01:03 34.77229 -116.98068 30457 ft 493 kts 52°
2026-05-06 01:03 34.79221 -116.94671 30656 ft 495 kts 52°
2026-05-06 01:03 34.81226 -116.91236 30805 ft 498 kts 52°
2026-05-06 01:04 34.83210 -116.87835 31181 ft 496 kts 52°
2026-05-06 01:04 34.85246 -116.84340 31421 ft 498 kts 52°
2026-05-06 01:04 34.87208 -116.80972 31593 ft 500 kts 52°
2026-05-06 01:04 34.89218 -116.77520 31916 ft 499 kts 53°
2026-05-06 01:05 34.91240 -116.74078 32176 ft 499 kts 51°
2026-05-06 01:05 34.93408 -116.70769 32391 ft 499 kts 48°
2026-05-06 01:05 34.95705 -116.67580 32499 ft 502 kts 46°
2026-05-06 01:05 34.98063 -116.64491 32724 ft 502 kts 45°
2026-05-06 01:06 35.00489 -116.61397 32859 ft 500 kts 45°
2026-05-06 01:06 35.05231 -116.55258 32887 ft 496 kts 46°
2026-05-06 01:07 35.09908 -116.49091 32892 ft 498 kts 46°
2026-05-06 01:07 35.14628 -116.42832 32896 ft 502 kts 46°
2026-05-06 01:08 35.19373 -116.36588 32888 ft 499 kts 46°
2026-05-06 01:08 35.24078 -116.30365 32886 ft 496 kts 46°
2026-05-06 01:09 35.28752 -116.24150 32893 ft 499 kts 46°
2026-05-06 01:09 35.33451 -116.17886 32899 ft 501 kts 46°
2026-05-06 01:10 35.38137 -116.11627 32883 ft 499 kts 46°
2026-05-06 01:10 35.42831 -116.05364 32880 ft 498 kts 46°
2026-05-06 01:11 35.47529 -115.99093 32914 ft 500 kts 46°
2026-05-06 01:11 35.52227 -115.92767 32911 ft 501 kts 46°
2026-05-06 01:12 35.56896 -115.86464 32903 ft 501 kts 46°
2026-05-06 01:12 35.61590 -115.80125 32907 ft 502 kts 46°
2026-05-06 01:13 35.66299 -115.73707 32925 ft 504 kts 47°
2026-05-06 01:13 35.70961 -115.67275 32904 ft 505 kts 47°
2026-05-06 01:14 35.77937 -115.57634 32888 ft 503 kts 47°
2026-05-06 01:14 35.82609 -115.51166 32919 ft 506 kts 47°
2026-05-06 01:15 35.87302 -115.44683 32896 ft 507 kts 46°
2026-05-06 01:15 35.91978 -115.38294 32842 ft 503 kts 47°
2026-05-06 01:16 35.96577 -115.31896 32842 ft 502 kts 47°
2026-05-06 01:16 36.01207 -115.25432 32870 ft 504 kts 47°
2026-05-06 01:17 36.05611 -115.19279 32843 ft 505 kts 47°
2026-05-06 01:17 36.09908 -115.12430 32842 ft 503 kts 55°
2026-05-06 01:18 36.13675 -115.05138 32848 ft 504 kts 58°
2026-05-06 01:18 36.17258 -114.97732 32843 ft 505 kts 58°
2026-05-06 01:19 36.20930 -114.90260 32829 ft 505 kts 58°
2026-05-06 01:19 36.24585 -114.82889 32830 ft 504 kts 58°
2026-05-06 01:20 36.28267 -114.75550 32832 ft 504 kts 57°
2026-05-06 01:20 36.32013 -114.68127 32834 ft 504 kts 57°
2026-05-06 01:21 36.35711 -114.60739 32835 ft 504 kts 58°
2026-05-06 01:21 36.39390 -114.53357 32841 ft 505 kts 58°
2026-05-06 01:22 36.43072 -114.45945 32834 ft 504 kts 58°
2026-05-06 01:22 36.46759 -114.38505 32834 ft 504 kts 58°
2026-05-06 01:23 36.50432 -114.31077 32830 ft 505 kts 58°
2026-05-06 01:23 36.54096 -114.23649 32829 ft 506 kts 58°
2026-05-06 01:24 36.57780 -114.16165 32825 ft 506 kts 58°
2026-05-06 01:24 36.61459 -114.08675 32819 ft 507 kts 58°
2026-05-06 01:25 36.65115 -114.01213 32817 ft 507 kts 58°